EHI
0 3 10 15 16 19 21 19 16 11 7 6 4 3 3 3 3 3 3 3 3 2 2 2 1 0 0 0 0 0 0 0 0 0 0 0 0 0 0 0 0 0 0
1 5 11 15 18 19 18 17 15 12 8 7 5 3 3 3 3 3 3 3 3 2 2 1 0 0 0 0 0 0 0 0 0 0 0 0 0 0 0 0 0 0 0
4 7 13 17 19 19 18 16 14 12 10 8 6 5 4 3 3 3 3 2 2 3 2 1 0 0 0 0 0 0 0 0 0 0 0 0 0 0 0 0 0 0 0
8 11 16 19 20 20 20 17 14 11 10 9 7 6 4 3 3 3 3 2 2 3 3 2 1 0 0 0 0 0 0 0 0 0 0 0 0 0 0 0 0 0 0
11 14 18 21 23 21 20 17 14 11 10 9 8 7 4 2 1 3 3 3 3 3 3 2 1 0 0 0 0 0 0 0 0 0 0 0 0 0 0 0 0 0 0
12 13 16 21 22 20 18 16 13 10 9 8 8 6 4 2 1 3 3 3 3 3 2 1 0 0 0 0 0 0 0 0 0 0 0 0 0 0 0 0 0 0 0
12 11 13 18 20 19 18 15 11 8 7 6 6 6 4 3 3 3 3 3 3 2 1 1 0 0 0 0 0 0 0 0 0 0 0 0 0 0 0 0 0 0 0
12 11 10 14 16 17 16 14 10 7 6 5 5 5 4 3 3 3 3 3 3 3 2 2 1 1 0 0 0 0 0 0 0 0 0 0 0 0 0 0 0 0 0
12 11 10 11 13 13 12 10 8 6 6 5 4 4 3 3 3 3 3 3 3 3 3 3 2 1 0 0 0 0 0 0 0 0 0 0 0 0 0 0 0 0 0
10 10 10 10 11 10 8 6 5 4 4 4 3 3 3 3 3 3 3 3 3 3 3 2 2 1 0 0 0 0 0 0 0 0 0 0 0 0 0 0 0 0 0
8 8 9 9 10 9 5 2 2 1 2 2 2 2 2 2 2 2 2 2 2 2 1 1 1 0 0 0 0 0 0 0 0 0 0 0 0 0 0 0 0 0 0
7 7 7 8 9 8 5 1 0 0 1 1 1 1 1 1 1 1 1 1 1 1 1 1 1 0 0 0 0 0 0 0 0 0 0 0 0 0 0 0 0 0 0
6 6 6 7 8 8 5 3 1 0 0 0 0 0 0 0 0 0 0 0 1 1 2 2 1 0 0 0 0 0 0 0 0 0 0 0 0 0 0 0 0 0 0
7 6 6 6 7 7 5 3 2 1 0 0 0 0 0 0 0 0 0 1 2 3 3 2 1 0 0 0 0 0 0 0 0 0 0 0 0 0 0 0 0 0 0
7 7 7 6 6 5 4 3 3 2 1 0 0 0 0 0 0 0 0 1 2 2 2 2 1 0 0 0 0 0 0 0 0 0 0 0 0 0 0 0 1 1 1
5 6 6 6 5 5 4 3 3 2 1 0 0 0 0 0 0 0 0 1 1 1 1 1 0 0 0 0 0 0 0 0 0 0 0 0 0 0 0 0 1 2 1
4 4 5 5 4 4 3 2 2 2 1 0 0 0 0 0 0 0 0 0 0 0 0 0 0 0 0 0 0 0 0 0 0 0 0 0 0 0 0 1 2 2 1
3 3 4 5 4 4 3 1 1 1 0 0 0 0 0 0 0 0 0 0 0 0 0 0 0 0 0 0 0 0 0 0 0 0 0 0 0 0 0 1 2 2 1
3 3 4 5 4 3 3 2 0 0 0 0 0 0 0 0 0 0 0 0 0 0 0 0 0 0 0 0 0 0 0 0 0 0 0 0 0 0 0 0 1 1 0
3 3 4 4 3 3 2 1 0 0 0 0 0 0 0 0 0 0 0 0 0 0 0 0 0 0 0 0 0 0 0 0 0 0 0 0 0 0 0 0 0 0 0
3 3 3 3 2 1 1 0 1 1 1 0 0 0 0 0 0 0 0 0 0 0 0 0 0 0 0 0 0 0 0 0 0 0 0 0 0 0 0 0 0 0 0
3 3 3 2 1 0 0 0 1 1 1 0 0 0 0 0 0 0 0 0 0 0 0 0 0 0 0 0 0 0 0 0 0 0 0 0 0 0 0 0 0 0 0
2 2 2 1 0 0 0 0 0 0 0 0 0 0 0 0 0 0 0 0 0 0 0 0 0 0 0 0 0 0 0 0 0 0 0 0 0 0 0 0 0 0 0
1 1 1 0 0 0 0 0 0 0 0 0 0 0 0 0 0 0 0 0 0 0 0 0 0 0 0 0 0 0 0 0 0 0 0 0 0 0 0 0 0 0 0
0 0 0 0 0 0 0 0 0 0 0 0 0 0 0 0 0 0 0 0 0 0 0 0 0 0 0 0 0 0 0 0 0 0 0 0 0 0 0 0 0 0 0
0 0 0 0 0 0 0 0 0 0 0 0 0 0 0 0 0 0 0 0 0 0 0 0 0 0 0 0 0 0 0 0 0 0 0 0 0 0 0 0 0 0 0
Wind_Speed
4 5 10 10 11 11 12 12 12 11 11 11 10 10 10 11 11 11 11 11 11 10 10 11 11 11 12 12 12 12 13 13 13 13 13 13 13 13 13 13 11 8 13
7 7 11 11 12 12 12 12 12 11 11 10 10 10 10 10 11 11 11 11 10 10 10 10 11 11 11 11 11 11 12 12 12 13 12 11 12 12 12 12 12 8 12
9 8 10 11 12 12 12 12 11 11 10 10 10 10 10 10 10 10 10 10 10 10 10 10 10 10 10 10 10 10 11 11 11 11 10 5 6 11 11 12 12 12 11
10 8 8 11 12 12 12 12 11 11 10 10 10 10 10 10 10 9 10 9 9 9 9 9 9 9 9 9 10 10 10 10 10 10 5 4 4 9 10 11 11 10 10
9 7 9 12 12 12 12 12 11 11 10 10 9 10 9 9 9 9 9 9 9 8 9 8 9 9 8 8 9 9 9 10 10 8 4 4 3 8 9 10 10 9 10
8 7 9 12 12 12 12 11 11 11 10 10 10 9 9 9 8 8 8 8 8 8 8 8 8 8 8 8 8 8 9 9 8 4 4 3 3 7 9 9 9 9 9
8 7 8 12 12 12 12 12 11 10 10 10 9 9 9 9 8 8 8 8 8 8 8 8 7 7 7 7 7 7 8 9 6 4 3 2 3 7 8 8 8 8 8
9 7 8 11 11 11 11 11 11 10 10 9 9 9 8 8 7 7 7 8 8 7 7 7 7 7 7 6 6 6 7 7 6 4 2 2 5 7 8 8 8 7 7
8 7 5 7 8 10 10 10 10 9 9 9 9 8 8 7 7 7 7 7 7 7 7 7 7 6 6 5 6 6 7 7 4 2 2 1 5 6 7 7 7 6 7
6 6 6 5 5 5 6 8 9 8 8 8 8 7 6 6 6 6 6 6 6 6 6 6 6 6 6 5 5 5 6 6 3 2 1 1 4 5 6 6 6 5 6
5 5 5 5 5 5 5 6 7 7 7 7 6 7 5 3 3 3 4 5 5 5 5 6 6 6 5 4 4 4 4 2 2 1 0 1 3 4 4 5 4 4 4
7 6 5 6 6 5 4 4 3 3 4 4 3 3 3 2 2 2 3 4 5 4 4 5 5 4 4 2 2 3 1 1 1 0 0 1 3 3 3 3 3 3 2
8 7 6 7 6 6 4 4 2 2 2 3 3 3 3 2 2 2 1 2 2 2 2 2 2 2 1 1 1 1 1 1 0 0 0 1 2 2 2 2 2 1 1
6 7 6 6 6 5 5 4 4 3 3 2 3 4 3 2 2 1 1 1 1 1 1 1 1 1 1 1 1 1 1 1 1 0 0 1 2 1 1 1 1 1 1
7 7 7 7 7 6 5 4 4 4 4 3 3 3 4 3 3 2 1 1 1 1 1 1 1 1 1 1 1 1 1 1 1 1 0 1 1 1 1 0 0 1 1
7 7 6 7 7 7 5 4 4 4 4 3 3 3 4 3 3 2 2 2 1 1 1 2 2 2 1 1 1 1 1 1 1 1 1 1 1 1 1 1 1 1 1
7 6 6 7 6 7 6 5 4 4 4 4 3 4 4 4 4 3 2 2 2 1 2 2 2 2 2 1 1 1 1 1 1 1 1 1 1 2 2 2 1 1 1
6 6 6 6 6 6 5 4 3 4 4 3 3 3 4 4 4 3 3 2 2 2 2 2 2 2 1 1 1 0 0 0 1 1 1 1 1 1 2 2 2 2 2
7 7 6 6 6 6 5 4 3 3 4 3 3 3 4 4 4 3 2 2 2 2 2 2 2 2 2 1 1 1 1 0 0 1 1 1 1 1 0 1 2 3 3
6 6 6 6 6 5 4 3 3 2 2 2 3 3 4 4 4 3 2 2 2 2 2 2 3 2 2 2 2 2 1 1 1 1 1 1 1 0 1 1 1 2 3
5 5 6 6 6 5 4 4 4 3 2 2 3 4 4 4 4 4 3 2 2 2 3 3 3 3 2 2 2 2 2 2 2 1 1 1 1 1 1 1 1 1 2
6 6 6 6 6 5 5 4 3 3 2 2 2 3 4 4 4 4 4 3 3 3 3 3 4 2 1 1 2 2 1 2 2 2 1 1 1 1 1 1 1 1 1
5 6 6 6 6 5 4 3 3 3 2 1 1 2 3 3 4 4 4 3 3 3 3 3 4 4 3 1 1 3 3 2 1 2 1 1 1 1 1 1 1 1 1
5 5 6 6 5 4 5 5 6 5 3 3 2 2 3 3 3 4 4 4 3 3 4 4 3 3 4 3 1 0 1 2 2 1 2 2 1 1 1 1 1 1 1
4 4 5 5 5 4 5 6 6 4 3 2 2 3 2 2 3 3 4 4 4 3 4 4 3 3 3 3 3 1 1 1 1 2 2 2 2 1 1 1 1 2 2
2 3 4 5 4 4 5 5 6 5 4 4 3 3 2 1 2 3 3 4 4 3 4 4 4 4 3 2 2 2 3 2 2 2 2 1 2 2 2 1 1 2 2
Wind_Direction
172 170 156 147 141 136 133 129 124 120 116 114 111 108 107 108 107 105 103 102 100 98 95 91 87 87 86 84 83 81 78 75 74 75 77 76 78 82 81 78 75 71 75
155 161 153 147 142 136 134 131 126 122 119 117 117 114 112 112 113 109 106 103 100 99 97 93 89 88 89 88 86 84 82 79 74 72 70 70 75 81 81 80 78 76 76
145 154 151 146 142 138 133 129 127 125 123 121 121 119 117 114 115 113 111 108 105 100 97 93 91 89 88 87 89 87 84 84 78 74 66 51 68 81 83 82 79 76 75
145 147 148 145 141 139 135 132 129 126 125 123 123 122 120 118 117 117 115 114 110 105 101 98 96 93 91 89 91 89 86 85 79 74 56 46 59 79 85 84 81 78 77
141 142 148 144 140 139 135 133 131 128 125 124 125 123 121 122 121 119 118 116 111 106 102 103 101 99 96 92 91 89 87 84 77 67 53 46 50 77 82 84 82 78 76
139 141 147 142 141 139 137 135 132 130 127 124 124 123 121 119 118 116 115 114 113 108 104 102 104 103 101 97 93 90 87 81 74 63 56 45 47 75 78 83 83 80 75
141 143 148 145 144 141 138 137 134 132 129 127 124 123 124 121 117 116 115 113 113 112 109 106 107 105 102 99 97 91 84 79 77 69 62 52 68 81 82 83 82 77 77
144 146 150 149 145 143 141 138 136 133 131 128 124 121 122 122 122 121 120 118 118 118 115 110 112 109 103 95 93 93 81 76 74 73 62 54 88 89 86 83 78 76 78
139 141 145 151 149 145 142 141 139 137 133 128 123 120 119 120 123 126 126 124 124 123 119 116 116 113 104 92 88 87 78 77 73 66 67 49 93 91 87 85 80 81 77
136 143 147 143 141 145 147 144 140 137 134 129 122 115 114 115 117 119 121 125 127 126 126 125 123 115 106 97 92 85 77 73 71 60 41 92 96 93 89 87 84 81 81
144 150 151 146 142 140 145 149 142 139 134 126 121 114 104 96 98 107 114 120 126 129 130 132 127 119 101 92 94 84 71 72 82 61 31 104 108 98 94 90 88 84 80
167 169 165 158 155 151 149 142 139 134 132 127 124 118 105 101 100 100 102 111 113 111 117 125 120 105 88 74 72 74 69 70 81 58 336 131 121 103 93 89 86 84 76
174 171 174 169 164 159 153 149 142 138 135 132 132 127 113 101 95 85 85 82 95 96 93 95 88 79 85 92 92 102 110 86 81 13 353 120 128 113 94 83 86 81 71
175 180 177 173 168 166 161 159 156 154 151 152 154 144 131 123 115 116 115 114 107 126 129 112 100 88 98 107 117 128 125 126 121 98 352 84 103 102 88 73 80 54 48
183 186 184 177 173 171 166 168 162 165 163 164 161 158 148 144 149 148 146 138 137 138 144 134 124 117 120 133 131 128 126 125 128 123 46 60 73 67 57 13 46 55 31
192 190 185 180 180 173 174 173 169 169 162 158 164 167 156 153 156 158 155 154 159 165 158 154 152 137 131 128 124 133 153 151 135 120 111 44 28 27 340 318 322 343 334
194 184 182 180 176 174 176 178 169 169 163 162 167 165 158 156 158 158 159 167 171 151 135 123 118 112 117 110 103 99 130 147 145 131 115 84 12 14 21 346 341 341 357
189 182 182 173 172 175 171 167 170 167 164 167 164 162 162 160 158 154 158 171 163 144 140 131 129 114 111 120 108 56 75 85 124 117 107 98 73 30 15 8 2 352 357
190 183 181 171 171 172 166 159 158 166 168 167 162 160 164 162 160 155 163 167 152 144 145 145 129 122 122 107 95 56 49 63 67 99 99 96 87 72 60 19 15 4 350
182 177 176 169 168 161 154 143 134 148 165 162 163 163 161 161 159 152 154 156 148 143 143 139 129 114 124 118 76 39 14 3 26 96 120 84 65 69 77 47 7 350 347
168 171 175 170 166 157 158 159 157 174 174 173 172 163 160 161 161 157 153 156 155 160 163 151 132 117 106 114 88 39 8 9 26 39 66 72 42 23 46 39 13 349 333
177 176 175 173 169 173 173 168 160 157 171 176 166 160 162 163 168 166 163 169 167 157 150 147 135 131 130 126 126 119 16 347 354 11 22 68 38 22 18 6 343 334 325
183 182 178 175 170 170 157 139 124 100 93 110 157 168 169 166 173 171 169 168 171 164 168 170 156 153 159 165 146 149 159 203 281 329 340 5 5 18 335 319 309 312 309
193 184 176 169 162 160 153 153 154 161 180 195 182 179 169 167 172 172 169 167 169 170 168 178 170 163 156 168 183 125 150 155 161 247 315 322 324 317 313 317 310 299 293
180 173 171 161 158 159 163 161 162 163 174 151 145 157 166 173 173 172 171 170 174 178 175 174 169 165 167 172 173 164 120 102 154 165 229 289 320 298 284 277 277 282 288
144 154 156 155 161 162 164 165 168 167 161 153 157 169 180 180 185 184 176 177 178 181 180 178 176 170 173 170 170 165 164 166 183 168 198 247 275 283 288 271 262 270 288